Location: Mapua
(41.2500°S, 173.1000°E)
Time: 01:26:22
(UTC+13:00)

Amateur Radio Satellites - All Passes

Search period start: 22 October 2017 00:56
Search period end: 23 October 2017 00:56
Location: Mapua, 41.2500°S, 173.1000°E

Satellite Date Start Highest point End Downlink Frequencies (MHz)
Time Altitude Azimuth
EO-79 22 Oct 00:58:25 01:02:31 50° 280° (W) 01:06:42 145.935-145.965
POLYITAN 1 22 Oct 01:03:29 01:07:31 44° 279° (W) 01:11:37 437.675
Oscar 19 22 Oct 01:10:46 01:15:01 26° 115° (ESE) 01:19:18 437.125/150
SPROUT 22 Oct 01:21:10 01:25:02 31° 83° (E) 01:28:51 437.525
QB50P2 22 Oct 01:24:36 01:28:02 24° 275° (W) 01:31:31 145.880/145.840
NANOSAT C BR1 22 Oct 01:26:40 01:30:17 28° 276° (W) 01:33:58 145.865
LO-87 22 Oct 01:29:47 01:32:45 24° 250° (WSW) 01:35:42 145.935 - 145.965
AO-7 22 Oct 01:31:34 01:34:44 13° 138° (SE) 01:37:54 .
DUCHIFAT 1 22 Oct 01:37:07 01:40:34 24° 275° (W) 01:44:03 145.980
BUGSAT 1 22 Oct 01:40:28 01:44:34 87° 283° (WNW) 01:48:41 437.445
Gurwin Techsat 1B 22 Oct 01:48:25 01:53:22 40° 111° (ESE) 01:58:23 435.225
BEESAT 2 22 Oct 01:56:43 02:00:33 65° 236° (SW) 02:04:25 435.950
nSIGHT-1 22 Oct 01:57:23 01:59:12 14° 179° (S) 02:01:00 .
50 SAT 22 Oct 02:00:26 02:01:58 13° 88° (E) 02:03:29 437.505
AO-85 22 Oct 02:09:38 02:15:02 78° 237° (WSW) 02:20:23 145.980
VELOX 1 22 Oct 02:12:25 02:16:56 79° 77° (ENE) 02:21:21 145.980
BEESAT 3 22 Oct 02:13:12 02:15:35 16° 224° (SW) 02:17:59 437.485
M-CUBED/EXP-1 PRIME 22 Oct 02:27:58 02:32:19 48° 284° (WNW) 02:36:54 437.505
ESTCUBE 1 22 Oct 02:28:32 02:31:02 15° 242° (WSW) 02:33:31 437.505/2401.250
ISS 22 Oct 02:32:42 02:34:43 15° 173° (S) 02:36:45 437.550
Oscar 19 22 Oct 02:49:15 02:54:05 40° 278° (W) 02:59:01 437.125/150
SPROUT 22 Oct 02:57:21 03:00:44 23° 247° (WSW) 03:04:07 437.525
DX 1 22 Oct 03:15:43 03:20:09 88° 256° (WSW) 03:24:32 434.975-435.025
AO-7 22 Oct 03:17:31 03:25:34 53° 116° (ESE) 03:33:41 .
ITAMSAT 1 22 Oct 03:24:23 03:28:53 30° 114° (ESE) 03:33:25 435.822/435.867
Gurwin Techsat 1B 22 Oct 03:28:57 03:33:24 26° 275° (W) 03:37:54 435.225
50 SAT 22 Oct 03:31:23 03:34:23 31° 252° (WSW) 03:37:20 437.505
ITUPSAT 1 22 Oct 03:32:51 03:34:18 11° 91° (E) 03:35:44 437.325
nSIGHT-1 22 Oct 03:33:37 03:36:23 24° 159° (SSE) 03:39:08 .
UKube-1 22 Oct 03:37:43 03:42:07 80° 256° (WSW) 03:46:26 .
SO-50 22 Oct 03:39:43 03:44:12 40° 130° (SE) 03:48:33 436.795
BEESAT 22 Oct 03:46:20 03:49:22 16° 88° (E) 03:52:23 436.000
VELOX 1 22 Oct 03:51:25 03:52:41 11° 240° (WSW) 03:53:56 145.980
AO-85 22 Oct 03:53:03 03:56:21 16° 218° (SW) 03:59:34 145.980
ISS 22 Oct 04:08:50 04:11:58 34° 153° (SSE) 04:15:03 437.550
MOZHAYETS 4 22 Oct 04:28:53 04:33:29 52° 80° (E) 04:38:03
PCSat 22 Oct 04:29:25 04:32:50 16° 139° (SE) 04:36:14 145.827
CUBESAT XI-V 22 Oct 04:43:52 04:46:59 17° 89° (E) 04:50:04 437.345
ITAMSAT 1 22 Oct 05:03:27 05:08:13 35° 277° (W) 05:13:01 435.822/435.867
ITUPSAT 1 22 Oct 05:07:48 05:12:39 77° 255° (WSW) 05:17:29 437.325
nSIGHT-1 22 Oct 05:09:37 05:12:54 61° 321° (NW) 05:16:08 .
AO-7 22 Oct 05:11:01 05:18:31 36° 278° (W) 05:26:07 .
SO-50 22 Oct 05:20:38 05:24:26 25° 292° (WNW) 05:28:09 436.795
BEESAT 22 Oct 05:22:44 05:27:27 53° 252° (WSW) 05:32:07 436.000
DOVE 4 22 Oct 05:24:15 05:29:23 52° 108° (ESE) 05:34:22 437.250
XW-2F 22 Oct 05:37:28 05:39:04 12° 116° (ESE) 05:40:40 145.980 - 146.000
CUTE-I 22 Oct 05:41:35 05:45:24 20° 118° (ESE) 05:49:14 437.470
LilacSat-2 22 Oct 05:43:54 05:46:26 17° 114° (ESE) 05:48:59 437.200
ISS 22 Oct 05:45:24 05:48:25 31° 316° (NW) 05:51:23 437.550
NUDT-PHONESAT 22 Oct 05:46:37 05:47:50 11° 116° (ESE) 05:49:03 437.300
KKS-1 22 Oct 05:49:13 05:52:41 21° 86° (E) 05:56:06 437.445
XW-2D 22 Oct 05:49:28 05:52:11 19° 113° (ESE) 05:54:54 145.860 - 145.880
HO-68 22 Oct 05:57:08 06:01:36 18° 126° (SE) 06:06:05 435.675
XW-2B 22 Oct 06:02:26 06:05:35 25° 111° (ESE) 06:08:47 145.730 - 145.750
MOZHAYETS 4 22 Oct 06:07:10 06:10:12 17° 244° (WSW) 06:13:14
PCSat 22 Oct 06:11:32 06:17:02 88° 119° (ESE) 06:22:28 145.827
STARS 22 Oct 06:19:12 06:22:14 18° 87° (E) 06:25:14 437.465
CUBESAT XI-V 22 Oct 06:19:59 06:24:37 50° 252° (WSW) 06:29:11 437.345
XW-2C 22 Oct 06:25:07 06:28:47 47° 107° (ESE) 06:32:32 145.795 - 145.815
DOVE 4 22 Oct 07:03:27 07:07:15 20° 272° (W) 07:11:01 437.250
KAITUO 1B 22 Oct 07:05:07 07:08:53 74° 282° (WNW) 07:12:45 145.475/437.950
XW-2F 22 Oct 07:08:59 07:12:41 50° 279° (W) 07:16:28 145.980 - 146.000
CUBEBUG 2 22 Oct 07:15:55 07:19:12 22° 112° (ESE) 07:22:28 437.445
LilacSat-2 22 Oct 07:16:51 07:20:24 35° 277° (W) 07:24:01 437.200
NUDT-PHONESAT 22 Oct 07:17:33 07:21:11 52° 280° (W) 07:24:55 437.300
CUTE-I 22 Oct 07:19:40 07:24:58 58° 281° (W) 07:30:20 437.470
XW-2D 22 Oct 07:22:41 07:26:05 31° 277° (W) 07:29:35 145.860 - 145.880
KKS-1 22 Oct 07:25:12 07:29:19 35° 250° (WSW) 07:33:21 437.445
XW-2B 22 Oct 07:36:37 07:39:41 23° 274° (W) 07:42:48 145.730 - 145.750
CUTE 1.7 + AOD 2 22 Oct 07:38:19 07:42:35 70° 105° (ESE) 07:46:56 437.475
STRAND 1 22 Oct 07:39:24 07:41:42 13° 91° (E) 07:43:59 437.568
HO-68 22 Oct 07:41:05 07:48:18 86° 108° (ESE) 07:55:35 435.675
SEEDS 22 Oct 07:43:21 07:47:27 48° 107° (ESE) 07:51:38 437.485
UWE-3 22 Oct 07:51:01 07:54:40 30° 110° (ESE) 07:58:20 435.000/436.395/437.385
STARS 22 Oct 07:54:34 07:58:44 41° 251° (WSW) 08:02:52 437.465
YUBILEINY 22 Oct 07:57:34 08:04:35 25° 114° (ESE) 08:11:31 435.215
PCSat 22 Oct 07:57:36 07:59:36 12° 282° (WNW) 08:01:35 145.827
XW-2C 22 Oct 08:01:43 08:03:14 12° 270° (W) 08:04:45 145.795 - 145.815
Oscar 11 22 Oct 08:02:13 08:04:34 14° 117° (ESE) 08:06:55 .
AAUSAT CUBESAT 2 22 Oct 08:03:57 08:07:48 36° 109° (ESE) 08:11:43 437.432
XW-2A 22 Oct 08:32:39 08:36:00 69° 281° (W) 08:39:26 145.665 - 145.685
AO-73 22 Oct 08:38:42 08:42:42 46° 107° (ESE) 08:46:45 145.935
BEESAT 3 22 Oct 08:50:32 08:53:59 30° 130° (SE) 08:57:28 437.485
CUBEBUG 2 22 Oct 08:51:52 08:55:38 31° 277° (W) 08:59:25 437.445
ZACube-1 22 Oct 09:01:21 09:05:31 83° 283° (WNW) 09:09:46 437.345
AO-85 22 Oct 09:02:44 09:05:32 15° 143° (SE) 09:08:15 145.980
STRAND 1 22 Oct 09:16:15 09:21:25 74° 254° (WSW) 09:26:32 437.568
SEEDS 22 Oct 09:21:00 09:23:24 15° 271° (W) 09:25:48 437.485
DELFI C3 22 Oct 09:21:20 09:24:23 21° 113° (ESE) 09:27:26 145.870
O/OREOS (USA 219) 22 Oct 09:26:48 09:31:20 85° 251° (WSW) 09:35:55 437.305
UWE-3 22 Oct 09:27:50 09:31:08 22° 274° (W) 09:34:27 435.000/436.395/437.385
HO-68 22 Oct 09:32:27 09:36:50 17° 270° (W) 09:41:15 435.675
Oscar 11 22 Oct 09:35:55 09:40:11 56° 280° (W) 09:44:32 .
AAUSAT CUBESAT 2 22 Oct 09:40:18 09:43:21 19° 273° (W) 09:46:25 437.432
EO-88 22 Oct 09:46:58 09:49:40 19° 112° (ESE) 09:52:23 145.990 - 145.960
YUBILEINY 22 Oct 09:53:26 10:02:13 71° 274° (W) 10:10:51 435.215
Max Valier Satellite 22 Oct 09:58:52 10:02:16 36° 108° (ESE) 10:05:44 145.860
BEESAT 2 22 Oct 10:14:00 10:17:53 69° 124° (ESE) 10:21:46 435.950
AO-73 22 Oct 10:16:58 10:19:12 14° 271° (W) 10:21:27 145.935
FO-29 22 Oct 10:26:47 10:32:53 79° 77° (ENE) 10:38:17 435.910
UNISAT 6 22 Oct 10:27:37 10:30:58 21° 86° (E) 10:34:20 437.425
BEESAT 3 22 Oct 10:28:17 10:31:23 23° 293° (WNW) 10:34:28 437.485
TIGRISAT 22 Oct 10:41:44 10:45:30 26° 84° (E) 10:49:16 435.000
AO-85 22 Oct 10:42:00 10:46:46 89° 301° (WNW) 10:51:06 145.980
DELFI C3 22 Oct 10:55:18 10:58:55 31° 276° (W) 11:02:34 145.870
PRISM 22 Oct 11:08:43 11:12:02 22° 85° (E) 11:15:16 437.425
O/OREOS (USA 219) 22 Oct 11:10:32 11:11:29 11° 229° (SW) 11:12:25 437.305
EO-88 22 Oct 11:19:57 11:23:07 27° 276° (W) 11:26:20 145.990 - 145.960
Max Valier Satellite 22 Oct 11:34:13 11:36:14 14° 272° (W) 11:38:18 145.860
ESTCUBE 1 22 Oct 11:49:13 11:53:40 55° 107° (ESE) 11:58:11 437.505/2401.250
YUBILEINY 22 Oct 11:54:01 11:57:15 13° 253° (WSW) 12:00:29 435.215
RS-15 22 Oct 12:03:14 12:12:08 30° 76° (ENE) 12:21:01 29.354- 29.394
UNISAT 6 22 Oct 12:03:41 12:07:45 36° 251° (WSW) 12:11:52 437.425
LO-87 22 Oct 12:04:33 12:08:07 63° 282° (WNW) 12:11:44 145.935 - 145.965
FO-29 22 Oct 12:13:35 12:17:01 16° 236° (SW) 12:20:17 435.910
SPROUT 22 Oct 12:14:26 12:17:55 25° 112° (ESE) 12:21:25 437.525
TIGRISAT 22 Oct 12:18:19 12:22:06 28° 249° (WSW) 12:25:57 435.000
EO-79 22 Oct 12:43:14 12:46:47 25° 85° (E) 12:50:19 145.935-145.965
PRISM 22 Oct 12:43:39 12:47:17 29° 249° (WSW) 12:50:51 437.425
POLYITAN 1 22 Oct 12:48:13 12:51:58 28° 84° (E) 12:55:40 437.675
AIST 2D 22 Oct 13:05:10 13:08:42 51° 254° (WSW) 13:12:12 435.315
QB50P2 22 Oct 13:08:17 13:12:31 53° 80° (E) 13:16:41 145.880/145.840
VELOX 1 22 Oct 13:09:01 13:13:29 68° 106° (ESE) 13:18:00 145.980
NANOSAT C BR1 22 Oct 13:10:05 13:14:12 44° 81° (E) 13:18:16 145.865
DUCHIFAT 1 22 Oct 13:19:57 13:24:07 50° 80° (E) 13:28:14 145.980
BUGSAT 1 22 Oct 13:23:41 13:25:38 13° 89° (E) 13:27:33 437.445
ESTCUBE 1 22 Oct 13:28:17 13:30:48 15° 271° (W) 13:33:21 437.505/2401.250
SPROUT 22 Oct 13:49:55 13:53:40 29° 276° (W) 13:57:27 437.525
50 SAT 22 Oct 13:58:59 14:02:18 71° 105° (ESE) 14:05:39 437.505
Gurwin Techsat 1B 22 Oct 14:05:52 14:08:59 15° 90° (E) 14:12:04 435.225
M-CUBED/EXP-1 PRIME 22 Oct 14:08:52 14:10:27 12° 87° (E) 14:12:01 437.505
DX 1 22 Oct 14:10:36 14:15:01 79° 104° (ESE) 14:19:30 434.975-435.025
RS-15 22 Oct 14:12:32 14:23:25 73° 234° (SW) 14:34:28 29.354- 29.394
EO-79 22 Oct 14:18:50 14:22:29 28° 249° (WSW) 14:26:07 145.935-145.965
POLYITAN 1 22 Oct 14:24:06 14:27:37 25° 248° (WSW) 14:31:06 437.675
UKube-1 22 Oct 14:31:31 14:35:53 85° 105° (ESE) 14:40:18 .
ITUPSAT 1 22 Oct 14:39:06 14:41:44 15° 119° (ESE) 14:44:23 437.325
QB50P2 22 Oct 14:45:29 14:47:50 14° 244° (WSW) 14:50:09 145.880/145.840
NANOSAT C BR1 22 Oct 14:46:48 14:49:32 17° 245° (WSW) 14:52:15 145.865
VELOX 1 22 Oct 14:48:56 14:50:22 11° 270° (W) 14:51:48 145.980
BEESAT 22 Oct 14:52:35 14:56:04 20° 116° (ESE) 14:59:33 436.000
DUCHIFAT 1 22 Oct 14:56:54 14:59:21 15° 244° (WSW) 15:01:47 145.980
BUGSAT 1 22 Oct 14:57:16 15:01:14 49° 253° (WSW) 15:05:13 437.445
Oscar 19 22 Oct 15:00:18 15:05:36 73° 77° (ENE) 15:10:50 437.125/150
AO-7 22 Oct 15:21:33 15:25:52 15° 92° (E) 15:30:08 .
MOZHAYETS 4 22 Oct 15:30:25 15:34:50 49° 108° (ESE) 15:39:19
NO-84 22 Oct 15:34:09 15:37:01 63° 44° (NE) 15:39:57 435.350 FM
M-CUBED/EXP-1 PRIME 22 Oct 15:40:58 15:45:21 61° 249° (WSW) 15:49:20 437.505
Gurwin Techsat 1B 22 Oct 15:44:02 15:49:24 67° 253° (WSW) 15:54:41 435.225
CUBESAT XI-V 22 Oct 15:47:15 15:50:22 18° 116° (ESE) 15:53:32 437.345
ITUPSAT 1 22 Oct 16:14:13 16:18:59 66° 282° (WNW) 16:23:48 437.325
BEESAT 22 Oct 16:28:54 16:33:29 46° 279° (W) 16:38:08 436.000
RS-15 22 Oct 16:29:13 16:38:05 27° 206° (SSW) 16:47:11 29.354- 29.394
Oscar 19 22 Oct 16:41:14 16:44:16 16° 240° (WSW) 16:47:19 437.125/150
KKS-1 22 Oct 16:47:16 16:50:40 21° 115° (ESE) 16:54:04 437.445
MOZHAYETS 4 22 Oct 17:09:21 17:12:15 16° 271° (W) 17:15:11
AO-7 22 Oct 17:11:22 17:19:52 79° 73° (ENE) 17:28:13 .
NO-84 22 Oct 17:12:44 17:14:36 15° 205° (SSW) 17:16:31 435.350 FM
ITAMSAT 1 22 Oct 17:15:38 17:20:55 82° 77° (ENE) 17:26:07 435.822/435.867
STARS 22 Oct 17:15:58 17:18:52 17° 116° (ESE) 17:21:47 437.465
CUBESAT XI-V 22 Oct 17:22:44 17:27:18 51° 279° (W) 17:31:58 437.345
DOVE 4 22 Oct 17:25:53 17:27:22 11° 92° (E) 17:28:50 437.250
SO-50 22 Oct 17:56:18 17:58:18 12° 73° (ENE) 18:00:18 436.795
O/OREOS (USA 219) 22 Oct 17:58:23 18:01:44 20° 124° (SE) 18:05:04 437.305
KKS-1 22 Oct 18:22:44 18:26:56 38° 278° (W) 18:31:11 437.445
KAITUO 1B 22 Oct 18:38:19 18:39:28 11° 90° (E) 18:40:38 145.475/437.950
XW-2F 22 Oct 18:41:50 18:44:21 16° 88° (E) 18:46:50 145.980 - 146.000
RS-15 22 Oct 18:47:45 18:55:45 22° 169° (S) 19:03:57 29.354- 29.394
NUDT-PHONESAT 22 Oct 18:48:45 18:50:55 14° 88° (E) 18:53:02 437.300
LilacSat-2 22 Oct 18:50:05 18:53:19 24° 85° (E) 18:56:30 437.200
STARS 22 Oct 18:50:33 18:54:49 47° 279° (W) 18:59:08 437.465
STRAND 1 22 Oct 18:54:40 18:58:21 20° 117° (ESE) 19:02:04 437.568
XW-2D 22 Oct 18:54:57 18:58:16 26° 85° (E) 19:01:33 145.860 - 145.880
ITAMSAT 1 22 Oct 18:57:06 18:59:38 14° 239° (WSW) 19:02:11 435.822/435.867
DOVE 4 22 Oct 19:01:08 19:05:34 60° 254° (WSW) 19:09:45 437.250
AO-7 22 Oct 19:05:14 19:11:45 26° 233° (SW) 19:18:14 .
XW-2B 22 Oct 19:08:13 19:11:52 35° 83° (E) 19:15:27 145.730 - 145.750
HO-68 22 Oct 19:10:57 19:15:03 16° 91° (E) 19:19:05 435.675
PCSat 22 Oct 19:15:01 19:15:43 10° 79° (E) 19:16:25 145.827
CUTE 1.7 + AOD 2 22 Oct 19:25:01 19:26:56 13° 90° (E) 19:28:50 437.475
XW-2C 22 Oct 19:31:22 19:35:18 72° 78° (ENE) 19:39:11 145.795 - 145.815
SO-50 22 Oct 19:33:17 19:38:06 79° 236° (SW) 19:42:58 436.795
CUTE-I 22 Oct 19:36:38 19:41:57 57° 79° (E) 19:47:12 437.470
O/OREOS (USA 219) 22 Oct 19:37:02 19:41:21 44° 286° (WNW) 19:45:39 437.305
KAITUO 1B 22 Oct 20:09:58 20:13:45 51° 254° (WSW) 20:17:28 145.475/437.950
XW-2F 22 Oct 20:14:59 20:18:34 35° 251° (WSW) 20:22:07 145.980 - 146.000
NUDT-PHONESAT 22 Oct 20:21:20 20:24:55 38° 252° (WSW) 20:28:27 437.300
LilacSat-2 22 Oct 20:24:14 20:27:30 25° 249° (WSW) 20:30:45 437.200
XW-2D 22 Oct 20:29:12 20:32:19 23° 249° (WSW) 20:35:24 145.860 - 145.880
NO-84 22 Oct 20:30:44 20:31:45 11° 161° (SSE) 20:32:46 435.350 FM
STRAND 1 22 Oct 20:32:07 20:37:07 52° 280° (W) 20:42:12 437.568
FO-29 22 Oct 20:36:41 20:43:50 41° 113° (ESE) 20:50:34 435.910
CUBEBUG 2 22 Oct 20:41:32 20:45:47 50° 81° (E) 20:50:07 437.445
XW-2B 22 Oct 20:43:08 20:45:44 17° 247° (WSW) 20:48:19 145.730 - 145.750
ZACube-1 22 Oct 20:50:00 20:53:15 19° 87° (E) 20:56:31 437.345
PCSat 22 Oct 20:52:46 20:58:11 83° 62° (ENE) 21:03:40 145.827
HO-68 22 Oct 20:56:23 21:03:39 90° 253° (WSW) 21:10:50 435.675
CUTE 1.7 + AOD 2 22 Oct 20:58:49 21:03:08 57° 254° (WSW) 21:07:21 437.475
YUBILEINY 22 Oct 20:59:07 21:06:17 29° 98° (E) 21:13:28 435.215
RS-15 22 Oct 21:01:24 21:12:06 45° 137° (SE) 21:23:13 29.354- 29.394
SEEDS 22 Oct 21:02:22 21:06:43 85° 255° (WSW) 21:11:00 437.485
UWE-3 22 Oct 21:15:41 21:20:05 69° 79° (E) 21:24:34 435.000/436.395/437.385
SO-50 22 Oct 21:16:46 21:19:22 14° 217° (SW) 21:22:00 436.795
CUTE-I 22 Oct 21:17:43 21:21:31 20° 242° (WSW) 21:25:18 437.470
AAUSAT CUBESAT 2 22 Oct 21:20:49 21:25:03 67° 80° (E) 21:29:12 437.432
Oscar 11 22 Oct 21:23:24 21:27:09 26° 85° (E) 21:30:52 .
XW-2A 22 Oct 21:26:35 21:30:05 65° 256° (WSW) 21:33:31 145.665 - 145.685
UNISAT 6 22 Oct 21:26:55 21:29:52 18° 115° (ESE) 21:32:50 437.425
TIGRISAT 22 Oct 21:40:41 21:44:04 23° 113° (ESE) 21:47:28 435.000
nSIGHT-1 22 Oct 21:47:13 21:50:17 37° 43° (NE) 21:53:23 .
PRISM 22 Oct 21:58:11 22:01:00 18° 115° (ESE) 22:03:49 437.425
AO-73 22 Oct 22:02:00 22:06:27 79° 255° (WSW) 22:10:58 145.935
NO-84 22 Oct 22:06:28 22:09:43 44° 142° (SE) 22:13:11 435.350 FM
CUBEBUG 2 22 Oct 22:19:24 22:22:00 16° 245° (WSW) 22:24:39 437.445
FO-29 22 Oct 22:21:17 22:28:41 45° 278° (W) 22:35:46 435.910
ISS 22 Oct 22:24:30 22:27:51 78° 38° (NE) 22:31:13 437.550
ZACube-1 22 Oct 22:25:30 22:29:38 39° 251° (WSW) 22:33:49 437.345
DELFI C3 22 Oct 22:31:51 22:35:27 31° 84° (E) 22:38:59 145.870
PCSat 22 Oct 22:38:37 22:42:16 18° 223° (SW) 22:45:57 145.827
HO-68 22 Oct 22:45:44 22:50:24 19° 234° (SW) 22:55:03 435.675
EO-88 22 Oct 22:48:16 22:51:22 24° 85° (E) 22:54:25 145.990 - 145.960
YUBILEINY 22 Oct 22:53:39 23:02:25 63° 258° (WSW) 23:11:15 435.215
UWE-3 22 Oct 22:54:13 22:55:59 12° 243° (WSW) 22:57:46 435.000/436.395/437.385
AAUSAT CUBESAT 2 22 Oct 22:58:28 22:59:53 11° 242° (WSW) 23:01:18 437.432
Oscar 11 22 Oct 22:59:25 23:03:12 28° 249° (WSW) 23:06:58 .
Max Valier Satellite 22 Oct 23:01:57 23:05:40 51° 80° (E) 23:09:21 145.860
UNISAT 6 22 Oct 23:02:11 23:06:16 41° 278° (W) 23:10:23 437.425
RS-15 22 Oct 23:13:52 23:24:58 62° 294° (WNW) 23:36:35 29.354- 29.394
TIGRISAT 22 Oct 23:16:44 23:20:36 31° 276° (W) 23:24:28 435.000
nSIGHT-1 22 Oct 23:23:38 23:26:37 30° 205° (SSW) 23:29:38 .
PRISM 22 Oct 23:31:56 23:35:55 41° 279° (W) 23:39:57 437.425
EO-79 22 Oct 23:35:53 23:38:56 19° 114° (ESE) 23:42:00 145.935-145.965
AIST 2D 22 Oct 23:38:42 23:42:09 50° 106° (ESE) 23:45:40 435.315
POLYITAN 1 22 Oct 23:40:56 23:44:11 22° 113° (ESE) 23:47:27 437.675
ESTCUBE 1 22 Oct 23:43:51 23:45:31 12° 91° (E) 23:47:11 437.505/2401.250
NO-84 22 Oct 23:44:13 23:46:51 20° 308° (NW) 23:49:38 435.350 FM
QB50P2 23 Oct 00:00:32 00:04:29 39° 109° (ESE) 00:08:28 145.880/145.840
NANOSAT C BR1 23 Oct 00:01:56 00:05:41 32° 110° (ESE) 00:09:29 145.865
ISS 23 Oct 00:01:57 00:04:39 22° 199° (SSW) 00:07:20 437.550
DELFI C3 23 Oct 00:06:59 00:09:59 20° 247° (WSW) 00:12:55 145.870
BEESAT 2 23 Oct 00:07:45 00:08:47 11° 72° (ENE) 00:09:50 435.950
DUCHIFAT 1 23 Oct 00:11:26 00:15:16 36° 109° (ESE) 00:19:10 145.980
BEESAT 3 23 Oct 00:16:47 00:20:27 50° 62° (ENE) 00:24:08 437.485
EO-88 23 Oct 00:21:56 00:24:53 22° 249° (WSW) 00:27:48 145.990 - 145.960
Max Valier Satellite 23 Oct 00:37:34 00:39:01 12° 244° (WSW) 00:40:28 145.860
Oscar 19 23 Oct 00:40:55 00:43:34 14° 121° (ESE) 00:46:14 437.125/150
